WetterOnline ( https://www.wetteronline.de )

Wetter aktuell Albstadt

Aktuelles Wetter: Messstetten (900m)

6-stündlich | Neueste Meldungen
Ortszeit Temperatur Wetter
So, 14.04. 20:00 18.8° C bewölkt
So, 14.04. 14:00 20.6° C leicht bewölkt
So, 14.04. 8:00 15.2° C leicht bewölkt
So, 14.04. 2:00 8.2° C wolkig
Sa, 13.04. 20:00 16.0° C wolkig
Sa, 13.04. 14:00 20.5° C leicht bewölkt
Sa, 13.04. 8:00 9.0° C wolkig
Sa, 13.04. 2:00 4.5° C wolkig
Ortszeit Temperatur Wetter
So, 14.04. 23:00 8.9° C wolkig
So, 14.04. 22:50 8.9° C wolkig
So, 14.04. 22:40 9.2° C bedeckt
So, 14.04. 22:30 9.6° C wolkig
So, 14.04. 22:20 9.6° C wolkig
So, 14.04. 22:10 9.2° C bedeckt
So, 14.04. 22:00 9.8° C wolkig
So, 14.04. 21:30 11.6° C wolkig
So, 14.04. 21:00 13.0° C wolkig
So, 14.04. 20:30 17.5° C wolkig
So, 14.04. 20:00 18.8° C bewölkt
Ortszeit Relative Feuchte Sichtweite
So, 14.04. 20:00 46% 60 km
So, 14.04. 14:00 38% 60 km
So, 14.04. 8:00 55% >70 km
So, 14.04. 2:00 69% 60 km
Sa, 13.04. 20:00 64% 55 km
Sa, 13.04. 14:00 39% >70 km
Sa, 13.04. 8:00 84% 40 km
Sa, 13.04. 2:00 86% 30 km
Ortszeit Relative Feuchte Sichtweite
So, 14.04. 23:00 84% 65 km
So, 14.04. 22:50 84% -
So, 14.04. 22:40 82% -
So, 14.04. 22:30 83% 55 km
So, 14.04. 22:20 83% -
So, 14.04. 22:10 83% -
So, 14.04. 22:00 82% 55 km
So, 14.04. 21:30 72% >70 km
So, 14.04. 21:00 65% >70 km
So, 14.04. 20:30 49% >70 km
So, 14.04. 20:00 46% 60 km
Ortszeit Niederschlagsmenge Niederschlagsart
So, 14.04. 20:00 0.0 l/m2 in 12 Std. -
So, 14.04. 14:00 0.0 l/m2 in 6 Std. -
So, 14.04. 8:00 0.0 l/m2 in 12 Std. -
So, 14.04. 2:00 0.0 l/m2 in 6 Std. -
Sa, 13.04. 20:00 0.0 l/m2 in 12 Std. -
Sa, 13.04. 14:00 0.0 l/m2 in 6 Std. -
Sa, 13.04. 8:00 0.0 l/m2 in 12 Std. -
Sa, 13.04. 2:00 0.0 l/m2 in 6 Std. -
Ortszeit Niederschlagsmenge Niederschlagsart
So, 14.04. 23:00 0.0 l/m2 in 1 Std. -
So, 14.04. 22:50 keine Meldung -
So, 14.04. 22:40 keine Meldung -
So, 14.04. 22:30 0.0 l/m2 in 30 Min -
So, 14.04. 22:20 keine Meldung -
So, 14.04. 22:10 keine Meldung -
So, 14.04. 22:00 0.0 l/m2 in 1 Std. -
So, 14.04. 21:30 0.0 l/m2 in 30 Min -
So, 14.04. 21:00 0.0 l/m2 in 1 Std. -
So, 14.04. 20:30 0.0 l/m2 in 30 Min -
So, 14.04. 20:00 0.0 l/m2 in 1 Std. -
Ortszeit Stärke Spitze Richtung
km/h Bft. km/h Grad Sektor
So, 14.04. 20:00 9 2 33 260° W
So, 14.04. 14:00 17 3 31 300° NW
So, 14.04. 8:00 7 2 18 250° W
So, 14.04. 2:00 6 1 13 200° S
Sa, 13.04. 20:00 4 1 22 190° S
Sa, 13.04. 14:00 9 2 19 190° S
Sa, 13.04. 8:00 0 0 4 - -
Sa, 13.04. 2:00 2 1 7 50° NO
Ortszeit Stärke Spitze Richtung
km/h Bft. km/h Grad Sektor
So, 14.04. 23:00 0 0 7 - -
So, 14.04. 22:50 2 1 - 330° NW
So, 14.04. 22:40 2 1 - 90° O
So, 14.04. 22:30 4 1 7 110° O
So, 14.04. 22:20 4 1 - 110° O
So, 14.04. 22:10 4 1 - 110° O
So, 14.04. 22:00 2 1 13 80° O
So, 14.04. 21:30 0 0 14 - -
So, 14.04. 21:00 4 1 18 270° W
So, 14.04. 20:30 7 2 15 250° W
So, 14.04. 20:00 9 2 19 260° W
Ortszeit Untergrenze Bedeckung Gattung
total tief tief mittel hoch
So, 14.04. 20:00 6900 m 7/8 7/8 - - -
So, 14.04. 14:00 7800 m 7/8 0/8 - - -
So, 14.04. 8:00 9000 m 4/8 0/8 - - -
So, 14.04. 2:00 7500 m 8/8 0/8 - - -
Sa, 13.04. 20:00 9000 m 8/8 0/8 - - -
Sa, 13.04. 14:00 6900 m 8/8 1/8 - - -
Sa, 13.04. 8:00 6300 m 6/8 6/8 - - -
Sa, 13.04. 2:00 9000 m 8/8 0/8 - - -
Ortszeit Bedeckungsgrad in Achtel und Wolkenuntergrenze
So, 14.04. 23:00 8(7500m) 8(10500m)
So, 14.04. 22:50 8(7500m) 8(10500m)
So, 14.04. 22:40 8
So, 14.04. 22:30 7(7800m) 8(8400m) 8(9000m)
So, 14.04. 22:20 7(7800m) 8(8400m) 8(9000m)
So, 14.04. 22:10 8
So, 14.04. 22:00 8(7500m) 8(9000m) 8(9000m)
So, 14.04. 21:30 8(7500m) 8(9000m)
So, 14.04. 21:00 4(7500m) 8(8700m) 8(9000m)
So, 14.04. 20:30 3(7200m) 7(8400m) 8(9000m)
So, 14.04. 20:00 7(6900m) 7(9000m)
Ortszeit Stationsdruck (hPa) Tendenz (hPa in 3 Std.)
So, 14.04. 20:00 916 - 1,4
So, 14.04. 14:00 919 - 1,0
So, 14.04. 8:00 920 - 0,4
So, 14.04. 2:00 921 - 1,0
Sa, 13.04. 20:00 922 - 0,8
Sa, 13.04. 14:00 925 - 1,2
Sa, 13.04. 8:00 926 0,0
Sa, 13.04. 2:00 927 - 0,9
Ortszeit Stationsdruck (hPa) Tendenz (hPa in 3 Std.)
So, 14.04. 23:00 915 - 1,2
So, 14.04. 22:50 915 keine Meldung
So, 14.04. 22:40 915 keine Meldung
So, 14.04. 22:30 915 - 1,0
So, 14.04. 22:20 915 keine Meldung
So, 14.04. 22:10 916 keine Meldung
So, 14.04. 22:00 916 - 0,8
So, 14.04. 21:30 916 - 0,9
So, 14.04. 21:00 916 - 1,1
So, 14.04. 20:30 916 - 1,4
So, 14.04. 20:00 916 - 1,4
Ortszeit Schneehöhe (cm)
So, 14.04. 20:00 0
So, 14.04. 14:00 0
So, 14.04. 8:00 0
So, 14.04. 2:00 0
Sa, 13.04. 20:00 0
Sa, 13.04. 14:00 0
Sa, 13.04. 8:00 0
Sa, 13.04. 2:00 0
Ortszeit Schneehöhe (cm)
So, 14.04. 23:00 0
So, 14.04. 22:50 0
So, 14.04. 22:40 -
So, 14.04. 22:30 0
So, 14.04. 22:20 0
So, 14.04. 22:10 -
So, 14.04. 22:00 0
So, 14.04. 21:30 0
So, 14.04. 21:00 0
So, 14.04. 20:30 0
So, 14.04. 20:00 0
Link zu dieser Seite / Seite empfehlen

Das Wetter in ...